Location: Dobrá Voda
(49.4041°N, 15.0286°E)
Time: 02:47:07
(UTC+00:00)

Daily predictions for brighter satellites

Satellite Brightness Start Highest point End
(mag) Time Altitude Azimuth Time Altitude Azimuth Time Altitude Azimuth
Cosmos 1461 4.4 00:03:40 10° WNW 00:06:31 22° WSW 00:06:31 22° WSW
NOSS 2-2 (D) 4.4 00:01:57 10° NW 00:06:55 54° SW 00:11:38 20° SSE
Cosmos 1674 Rocket 4.3 00:06:55 29° WSW 00:08:31 42° WNW 00:12:39 10° N
Cosmos 1867 4.0 00:05:01 21° WSW 00:08:36 61° NW 00:14:03 10° NE
Gblst 52 Del rocket 4.4 00:02:34 10° W 00:08:39 74° N 00:14:12 10° ENE
Cosmos 2298 Rocket 4.1 00:07:41 31° SSW 00:10:19 76° WNW 00:15:39 10° NNE
Cosmos 1674 4.4 00:10:51 19° W 00:12:05 22° WNW 00:15:05 10° NNW
Cosmos 1238 Rocket 4.2 00:10:22 10° NW 00:12:06 16° W 00:12:06 16° W
Thor Agena Rocket 3.7 00:07:28 10° NNE 00:12:46 73° ESE 00:15:34 29° S
USA 306 2.9 00:11:52 40° SSW 00:13:04 58° SSE 00:17:11 10° ENE
Cosmos 2084 Rocket 4.3 00:12:47 26° SE 00:13:32 28° ESE 00:16:50 10° ENE
ATLAS CENTAUR R/B 3.9 00:13:27 10° W 00:13:59 10° W 00:13:59 10° W
Cosmos 2369 Rocket 4.2 00:09:38 10° NNW 00:14:28 28° NE 00:19:16 10° ESE
USA 307 3.0 00:15:20 39° SSW 00:16:32 54° SE 00:20:38 10° ENE
SL-16 R/B 3.3 00:16:08 19° SSE 00:19:24 33° ESE 00:24:26 10° NE
CZ-4 R/B 4.5 00:18:21 10° NNE 00:22:51 46° E 00:25:30 22° SSE
ATLAS 5 CENTAUR R/B 3.4 00:12:56 10° NW 00:22:58 35° WSW 00:24:39 28° SW
ERBS 2.3 00:22:52 48° SSE 00:23:01 49° SE 00:25:59 10° ENE
Cosmos 1980 3.7 00:20:38 28° SSW 00:23:46 83° WNW 00:29:28 10° NNE
Cosmos 1455 Rocket 3.0 00:19:17 10° N 00:23:47 89° E 00:26:09 27° S
CZ-4C R/B 3.7 00:17:27 10° NW 00:23:59 34° WSW 00:27:53 23° SSW
USA 215 4.0 00:18:29 10° ENE 00:24:49 53° NNW 00:31:09 10° W
Cosmos 2333 Rocket 3.9 00:20:19 10° W 00:25:02 26° NW 00:29:46 10° NNE
Cosmos 332 Rocket 3.7 00:28:23 30° SSW 00:30:45 84° ESE 00:35:34 10° NNE
NOSS 0 Rocket 4.2 00:29:22 22° SW 00:33:30 64° NW 00:39:44 10° NNE
USA 32 4.4 00:35:15 26° SW 00:38:00 52° W 00:43:10 10° N
Meteor 2-10 Rocket 3.9 00:32:36 10° NNW 00:38:09 55° W 00:41:17 25° SSW
Meteor 1-24 Rocket 3.9 00:34:53 21° S 00:38:36 67° E 00:44:01 10° NNE
Cosmos 1975 Rocket 3.1 00:39:39 29° SSW 00:41:53 76° W 00:46:22 10° N
UNK 4.0 00:40:50 13° SSE 00:44:51 71° ENE 00:49:28 10° N
USA 308 2.7 00:44:46 25° SW 00:47:05 81° SSE 00:51:18 10° ENE
MOS 1 Rocket 3.4 00:44:05 12° SSE 00:47:56 63° ENE 00:52:14 10° N
Cosmos 2219 Rocket 4.0 00:43:58 10° W 00:48:22 23° NW 00:52:49 10° N
Cosmos 1025 Rocket 3.0 00:47:03 27° SSW 00:49:21 78° W 00:53:40 10° N
Cosmos 1455 2.4 00:46:13 10° N 00:49:55 66° ENE 00:52:38 17° SSE
YAOGAN 11 4.3 00:46:10 13° SSE 00:50:05 74° ENE 00:54:37 10° N
Cosmos 1269 Rocket 4.0 00:45:39 10° NNW 00:50:54 66° WSW 00:55:07 16° S
Cosmos 1271 Rocket 3.9 00:49:42 10° N 00:53:20 41° ENE 00:56:59 10° SE
GP-B 4.0 00:51:55 10° NNW 00:55:58 35° W 00:58:07 22° SW
CZ-2D R/B 2.1 00:53:18 10° NNE 00:58:44 89° WNW 01:02:28 20° SSW
Meteor 2-5 Rocket 3.8 00:55:38 21° SSW 00:59:33 76° WNW 01:05:14 10° N
Cosmos 1300 4.3 00:57:42 10° NW 01:00:29 20° W 01:01:27 18° WSW
Lacrosse 5 2.2 00:58:32 23° SSW 01:01:33 54° SE 01:06:31 10° ENE
Cosmos 2154 Rocket 4.2 00:57:36 10° N 01:04:00 77° E 01:10:19 10° SSE
Cosmos 1544 Rocket 3.7 01:05:45 10° NNW 01:10:07 59° W 01:13:09 19° S
USA 305 3.0 01:07:08 15° WSW 01:10:36 71° NNW 01:14:47 10° ENE
BREEZE-M DEB (TANK) 4.0 01:00:41 10° WSW 01:13:47 85° S 01:17:31 10° E
Cosmos 2237 Rocket 3.1 01:11:28 14° WSW 01:15:57 41° NW 01:21:22 10° NNE
AQUA 3.8 01:13:17 10° NNE 01:18:06 88° WNW 01:21:49 17° SSW
SL-16 R/B 2.7 01:14:42 13° S 01:20:16 56° WSW 01:26:25 10° NNW
Helios 1A 2.9 01:17:04 10° SSE 01:21:17 87° WSW 01:25:32 10° NNW
SAR-Lupe-2 3.5 01:18:07 10° NNE 01:21:43 79° WNW 01:24:09 19° SSW
Lacrosse 5 rocket 1.7 01:21:54 20° SSW 01:24:18 48° SE 01:28:16 10° ENE
Resurs 1-4 Rocket 2.5 01:22:44 10° N 01:27:50 51° WNW 01:31:56 16° SW
Cosmos 2074 Rocket 4.2 01:22:07 10° NNW 01:28:14 54° W 01:33:58 12° SSW
Cosmos 1943 Rocket 2.7 01:28:12 10° NW 01:33:30 41° WSW 01:38:45 10° S
Cosmos 2297 3.9 01:27:58 10° NW 01:33:33 52° WSW 01:39:05 10° S
Cosmos 1703 3.3 01:35:52 12° S 01:39:29 81° E 01:43:26 10° NNE
Cosmos 2184 Rocket 4.5 01:37:09 10° NNW 01:43:03 44° W 01:48:45 10° SSW
NOSS 7 (E) 4.5 01:40:04 10° NW 01:43:20 83° SW 01:47:30 10° SE
ADEOS II 2.2 01:38:36 10° N 01:43:50 67° WNW 01:48:40 12° SSW
IDEFIX/ARIANE 42P 2.6 01:39:28 10° NNE 01:44:46 78° WNW 01:49:52 11° SSW
MOS 1-B Rocket 4.3 01:43:08 10° SSE 01:48:40 67° ENE 01:54:29 10° N
Cosmos 292 Rocket 3.8 01:48:10 12° SSW 01:52:37 83° WNW 01:57:27 10° NNE
USA 306 3.6 01:48:39 10° W 01:52:44 52° NNW 01:56:50 10° ENE
Cosmos 2084 Rocket 4.1 01:49:15 10° WSW 01:52:49 40° NW 01:56:26 10° NNE
NPP 4.5 01:50:46 10° N 01:55:44 39° WNW 02:00:35 10° SW
USA 307 3.5 01:52:05 10° W 01:56:12 54° NNW 02:00:20 10° ENE
Meteor 1-21 Rocket 4.3 01:52:27 10° S 01:58:05 82° E 02:03:41 10° NNE
ERBS 3.6 01:55:42 10° W 01:58:29 31° NNW 02:01:17 10° NE
Cosmos 2369 Rocket 2.2 01:53:23 10° NNW 01:58:55 63° WSW 02:04:25 10° SSE
Gblst 52 Del rocket 4.2 01:54:52 10° WNW 02:00:38 85° NNE 02:06:08 10° ESE
IRS-1D 3.7 01:56:23 10° NNE 02:01:46 89° WNW 02:07:04 10° SSW
Cosmos 962 Rocket 4.5 01:55:50 10° NNW 02:01:58 74° W 02:08:03 10° S
Cosmos 2228 3.3 01:57:49 10° NNW 02:02:04 52° W 02:06:16 10° S
EO 1 Del DPAF 3.6 01:58:44 10° N 02:02:05 42° WNW 02:05:16 11° SW
SL-16 R/B 2.8 01:58:00 11° SW 02:03:21 48° NW 02:08:52 10° NNE
Cosmos 2251 Rocket 3.6 01:59:15 10° NNW 02:04:24 56° WSW 02:09:33 10° S
Meteor 1-28 Rocket 4.4 02:03:36 10° SSW 02:06:38 24° W 02:09:44 10° NW
Cosmos 2181 Rocket 4.4 02:00:52 10° S 02:07:01 65° E 02:13:07 10° NNE
USA 215 4.3 02:01:03 10° ENE 02:07:14 47° N 02:13:26 10° WNW
Cosmos 1656 Rocket 3.6 02:02:57 10° NNW 02:08:20 66° WSW 02:13:40 10° SSE
Cosmos 2058 Rocket 3.7 02:05:36 10° N 02:09:58 60° ENE 02:14:17 10° SSE
COSMOS 2455 3.0 02:04:52 10° SW 02:10:54 77° NW 02:16:58 10° NNE
Cosmos 1190 Rocket 4.4 02:06:40 10° NNW 02:11:59 72° ENE 02:17:16 10° SSE
Cosmos 1408 3.6 02:17:28 10° SSE 02:20:58 46° E 02:24:27 10° NNE
MSX 4.2 02:16:06 10° N 02:21:44 55° WNW 02:27:20 10° SW
Cosmos 1603 3.9 02:21:06 10° SSW 02:26:42 76° ESE 02:32:24 10° NNE
